Weather in Ryazantsevo

Russia / Kaluga Oblast     55°16′28″N   36°28′11″E
temp.,
°C
wind,
m/s
gust,
m/s
humid.,
%
clouds,
%
prec.,
mm/h
press.,
hPa
HPBL,
m
24 may, tue
tue2400:00+4nw3969100 0.0 1006144
03:00+3nw2567100 0.0 100786
06:00+5wnw3864100 0.0 1007239
09:00+9nw51150100 0.0 10071105
12:00+11nw71133100 0.0 10081760
15:00+11n6946100 0.0 10091879
18:00+9n586196 0.0 10111202
21:00+4n247722 0.0 101380
25 may, wed
wed2500:00+1nnw22875 0.0 101436
03:000nnw229420 0.0 101630
06:00+3nnw238164 0.0 1016146
09:00+8nnw345684 0.0 10161288
12:00+9nw3455100 0.0 10161538
15:00+10nw3563100 0.0 10161309
18:00+8nnw238051 0.1 1015542
21:00+5se119230 0.1 101510
26 may, thu
thu2600:00+4ssw22967 0.0 101442
03:00+4s2297100 0.0 101332
06:00+7ssw138751 0.0 101185
09:00+14sw2565100 0.0 1008399
12:00+16sw3669100 1.1 10061075
15:00+13sw5983100 3.2 1005445
18:00+11wsw2497100 1.6 1004135
21:00+10wsw1399100 2.7 100295
27 may, fri
fri2700:00+9wsw379832 1.4 1002215
03:00+8sw41198100 1.7 1001405
06:00+10w51195100 0.1 1000830
09:00+9w6119278 0.6 1001809
12:00+9w6118837 0.5 1002882
15:00+15w7115511 1.3 10031883
18:00+13wsw6106993 0.4 10031224
21:00+10sw3967100 0.4 1003220
28 may, sat
sat2800:00+9sw3897100 1.8 1002334
03:00+9sw379896 4.5 999481
06:00+9wsw41096100 0.6 999620
09:00+11wsw588224 1.0 9991120
12:00+13w795064 0.1 10002028
15:00+13wsw695798 0.4 10011970
18:00+13wsw595898 0.4 10021863
21:00+8sw41078100 0.7 1004607